Regional Weather Roundup
Issued by NWS Charleston, SC

Current Version | Previous Version | Graphics & Text | Print | Product List | Glossary On
Versions: 1 2 3 4 5 6 7 8 9 10 11 12 13 14 15 16 17 18 19 20 21 22 23 24 25 26 27 28 29 30 31 32 33 34 35 36 37 38 39 40 41 42 43 44 45 46 47 48 49 50
000
ASUS42 KCHS 281527
RWRCHS

REGIONAL WEATHER ROUNDUP
NATIONAL WEATHER SERVICE CHARLESTON SC
1100 AM EDT TUE JUL 28 2015

NOTE: "FAIR" INDICATES FEW OR NO CLOUDS BELOW 12,000 FEET WITH NO
SIGNIFICANT WEATHER AND/OR OBSTRUCTIONS TO VISIBILITY.

NOT ALL STATIONS ARE QUALITY CONTROLLED BY THE NATIONAL
WEATHER SERVICE. USE DATA WITH CAUTION...ESPECIALLY
DEWPOINT OBSERVATIONS.

SCZ027-030-031-034>040-042>050-281600-
...SOUTHEAST SOUTH CAROLINA...

CITY           SKY/WX    TMP DP  RH WIND       PRES   REMARKS
N CHARLESTON   MOSUNNY   86  73  65 NE10      29.99S HX  93
WATERFRONT PRK   N/A     84  76  77 NE7       29.97S HX  93
MOUNT PLEASANT FAIR      86  75  70 CALM      29.99S HX  95
JOHNS ISLAND   FAIR      88  75  66 NE8       29.99S HX  97
PINOPOLIS      NOT AVBL
MONCKS CORNER  FAIR      88  72  58 NE5       30.00S HX  94
SUMMERVILLE    FAIR      88  73  62 N3        30.00F HX  96
BEAUFORT MCAS  MOSUNNY   87  76  69 NE5       29.99F HX  97
BEAUFORT ARPT  FAIR      86  77  74 NE7       29.98S HAZE    HX  97
HILTON HEAD IS MOSUNNY   84  77  79 N7        30.00S HX  94
WALTERBORO     MOSUNNY   88  72  58 NE7       30.01S HX  94
ALLENDALE      PTSUNNY   86  75  70 CALM      30.00S HX  95

...SOUTHERN MIDLANDS AND PEE DEE...

CITY           SKY/WX    TMP DP  RH WIND       PRES   REMARKS
GEORGETOWN     NOT AVBL
KINGSTREE      NOT AVBL
ORANGEBURG     PTSUNNY   86  73  65 CALM      30.01F HX  93
BARNWELL       FAIR      90  73  58 CALM      30.01S HX  98
AIKEN          FAIR      88  70  55 SE5       30.05S HX  92
MANNING        FAIR      86  66  51 CALM      30.00F
COLUMBIA       PTSUNNY   88  73  61 VRB3      30.01S HX  95
SUMTER         MOSUNNY   89  70  53 E5        29.99F HX  94
FLORENCE       SUNNY     87  71  58 MISG      30.01F HX  93
MYRTLE BEACH   MOSUNNY   86  72  62 E14       30.03R HX  92
N MYRTLE BEACH MOSUNNY   84  72  67 E12       30.02R

$$

GAZ063-065-086>088-099>101-113>116-118-119-134>141-150-281600-
...SOUTHEAST GEORGIA...

CITY           SKY/WX    TMP DP  RH WIND       PRES   REMARKS
SAVANNAH ARPT  PTSUNNY   85  75  72 N6        29.99F HX  93
HUNTER AAF     PTSUNNY   86  79  79 VRB5      29.96F HX  99
FORT STEWART   MOSUNNY   85  74  70 NE3       29.98S HX  93
STATESBORO     MOSUNNY   87  77  72 E5        30.01S HX  98
SYLVANIA       MOSUNNY   88  78  70 E3        30.01F HX 101
CLAXTON        PTSUNNY   86  77  74 CALM      30.00S HX  97

...CSRA...CENTRAL AND FAR SOUTHEAST GEORGIA...

CITY           SKY/WX    TMP DP  RH WIND       PRES   REMARKS
THOMSON        PTSUNNY   90  75  62 SW5       30.06S HX 100
AUGUSTA-BUSH   MOSUNNY   89  74  60 VRB3      30.00F HX  98
AUGUSTA-DANIEL MOSUNNY   87  72  60 S3        30.02F HX  93
SWAINSBORO     FAIR      88  77  70 W3        30.01F HX 100
VIDALIA        CLOUDY    88  73  62 E3        30.01F HX  96
EASTMAN        FAIR      89  76  64 CALM      30.03S HX 100
HAZLEHURST     FAIR      89  76  65 N5        29.99F HX 100
ALMA           MOSUNNY   84  75  74 E7        30.00S HX  92
WAYCROSS       PTSUNNY   88  80  77 N5        30.00S HX 104
JESUP          FAIR      90  79  70 NE8       29.99F HX 105
BAXLEY         FAIR      86  77  74 N6        29.99F HX  97
BRUNSWICK      PTSUNNY   84  77  79 N5        29.98S HX  94
SAINT SIMONS   PTSUNNY   85  77  77 E12       29.97S HX  95

$$

SCZ027-028-034-036>038-045-046-048>050-GAZ119-141-281600-
...LAKE AND SUPPLEMENTAL COASTAL OBSERVATIONS...

STATION/POSITION TIME  TEMP    WIND        PRES    WAVE   SWELL
                       AIR SEA DIR/SP/G            HT/PER HT/PER/DIR
                 (UTC) (F)     (DEG/KT/KT) (MB)    (FT/S) (FT/S/D)
UPR LAKE MARION  NOT AVBL
WINYAH BAY       1400   82      60/ 10     1015.0
LAKE MURRAY      1400   85     180/  2/  5 1015.9R
ACE BASIN NERRS  1445   89      60/  2     1016.0
FORT PULASKI     1500   84 85   50/  7/  9 1015.8F
SAPELO ISLAND    1500   86      30/  6     1015.0S

$$

ANZ835-935-AMZ111-154-330-350-352-354-370-450-454-472-281600-
...C-MAN AND BUOY OBSERVATIONS...

STATION/POSITION TIME  TEMP    WIND        PRES    WAVE   SWELL
                       AIR SEA DIR/SP/G            HT/PER HT/PER/DIR
                 (UTC) (F)     (DEG/KT/KT) (MB)    (FT/S) (FT/S/D)
BUOY 41004       1450   83 84   60/ 16/ 17 1014.6R   3/ 7   2/ 7
BUOY 41008       1450   81 83   40/  4/  6 1015.4R   2/ 5   2/150/ 5
FOLLY BEACH CMAN 1500   84      60/ 11/ 14 1015.9R
CAPERS NEARSHORE 1408   82      60/ 12/ 16 1015.5R
FRIPP NEARSHORE  1400   84      40/  8/ 10 1015.2R


STATION/POSITION TIME  TEMP    WIND        PRES    WAVE   SWELL
                       AIR SEA DIR/SP/G            HT/PER HT/PER/DIR
                 (UTC) (F)     (DEG/KT/KT) (MB)    (FT/S) (FT/S/D)
5E ST. MARYS GA  1421      82                N/A     2/11
FRYING PAN BUOY  1450   84 83   90/ 16/ 17 1015.9R   4/ 7   2/110/11
BUOY 41025       NOT AVBL
CAPE LOOKOUT NC  1500   81      90/ 13/ 15 1016.5R
BUOY 41002       1450   79 82  240/ 14/ 16 1016.3R   6/ 7   5/250/ 7
BUOY 41010       1420   84 84  230/ 16/ 17 1016.2R
ST AUGUSTINE FL  1500   78 80  110/  4/  4 1015.2S


$$


USA.gov is the U.S. government's official web portal to all federal, state and local government web resources and services.